Terminal Aerodrome Forecast
Issued by NWS Cleveland, OH

Home | Current Version | Previous Version | Graphics & Text | Print | Product List | Glossary On
Versions: 1 2 3 4 5 6 7 8 9 10 11 12 13 14 15 16
000
FTUS41 KCLE 261500 AAD
TAFTOL
TAF AMD
KTOL 261501Z 2615/2712 30006KT 2SM -SN BR OVC005
     FM261600 31005KT 3SM BR VCSH OVC012
     FM261800 30010KT P6SM OVC025
     FM262000 28010G15KT P6SM BKN045
     FM270200 30010KT P6SM BKN250=

USA.gov is the U.S. government's official web portal to all federal, state and local government web resources and services.